CZ-6A DEB

Satellite information

Favourite Embed

Satellite Type and Status

DEBRISIN ORBIT

Key statistics

Satellite CZ-6A DEB at a glance.

Uptime

333

Days in orbit

Revolutions

≈ 14.2

Per day

Orbit

LEO

Low Earth Orbit

Inclination

89.0

Latest

Satellite identification and parameters

Extended collection of information and parameters for CZ-6A DEB.

Object identification

Identified? True

Debris? True

Object name: CZ-6A DEB

International designator: 2024-140XS

Object number (NORAD): 61401

Object ID (CCSDS): 61401

Country: PEOPLES REPUBLIC OF CHINA (PRC)

Current information (Y/N): Y

RCS size: SMALL

Orbital parameters

Period: 101.254 minutes

Inclination: 89.0073 deg

SMA: 7196.155 km

Apoapsis: 854.058 km

Periapsis: 781.981 km

RAAN: 314.12 deg

Eccentricy: 0.005008

Argument of periapsis: 245.5024 deg

Mean anomaly: 114.0941 deg

Mean motion: 14.22171676 rev/day

Mean motion (dot): 0.00003098 rev/day2

B* drag term: 0.0013748 1/REarth

Two-line elements (TLE)

Creation date: July 4, 2025, 3:20 a.m.

Reference frame: TEME

Reference center: EARTH

Epoch: July 3, 2025, 8:30 p.m. UTC

TLE line 0: 0 CZ-6A DEB

TLE line 1: 1 61401U 24140XS 25184.85436272 .00003098 00000-0 13748-2 0 9995

TLE line 2: 2 61401 89.0073 314.1200 0050080 245.5024 114.0941 14.22171676 42257

Live tracking on map

Real-time ground track for satellite CZ-6A DEB.

In-orbit conjunctions

A list of the most updated potential collisions computed for object CZ-6A DEB.

Target Orbit TCA Probability of collision Miss distance Type
DTUSAT SSO 2025-05-28 19:33:04 0.0003517498 642.0 (m) PAYLOAD
CZ-6A DEB SSO 2025-04-26 08:31:22 0.0001327676 50.0 (m) DEBRIS
SL-24 R/B SSO 2025-04-14 15:33:49 0.0001900516 731.0 (m) ROCKET BODY
COSMOS 1066 LEO 2025-02-28 20:48:19 0.000403112 822.0 (m) PAYLOAD
FENGYUN 1C DEB SSO 2025-02-19 08:26:33 0.000225616 629.0 (m) DEBRIS

Associated space launch

18 Low Earth Orbit communication satellites with Ku, Q and V band payloads for the G60 constellation operated by Shanghai Spacecom Satellite Technology (SSST) with funding backed by the Shanghai local government. Initial constellation will consist of 1296 satellites by 2027 with long term plans to expand it to 12000 satellites.

CZ-6A DEB was lifted into orbit during the mission ‘Long March 6A | G60 Polar Group 01’, on board a Long March 6A space rocket.

The launch took place on Aug. 6, 2024, 6:42 a.m. from Launch Complex 9A.

For more information about the launch, click the button.

Launch to space Long March 6A | G60 Polar Group 01
Long March 6A | G60 Polar Group 01

Agency: N/A

Status: Launch Successful

Launch date: Aug. 6, 2024, 6:42 a.m. UTC

Rocket: Long March 6A

Launch pad: Launch Complex 9A

Location: Taiyuan Satellite Launch Center, People's Republic of China

...

Latest news about this satellite

News about space launch
Brightness of first Chinese broadband constellation satellites alarms astronomers

The first satellites of a Chinese broadband constellation are significantly brighter than those of Western systems, posing a new challenge for astronomers.

News about space launch
Chinese rocket stage breaks up into cloud of more than 700 pieces of space debris

HELSINKI — A Chinese Long March 6A rocket’s upper stage has fragmented into a cloud of over 700 pieces of space debris, adding to concerns about long-term orbital safety. China […]

News about space launch
China's Thousand Sails Megaconstellation Kicks Off with Dangerous Debris Field

China's Thousand Sails Megaconstellation Kicks Off with Dangerous Debris Field


Newsletter sign-up

Weekly statistics, charts and insights to help you stay on top of the space industry.